Weather History for Fairbanks, AK

Change the Weather History Date:

Saturday, March 9, 2013

  Actual Average Record
Temperature  
Mean Temperature 25 °F 7 °F  
Max Temperature 34 °F 22 °F 50 °F (1949)
Min Temperature 15 °F -7 °F -44 °F (1911)
Degree Days  
Heating Degree Days 40 58  
Month to date heating degree days 486 533  
Since 1 July heating degree days 11457 10923  
Cooling Degree Days 0 0  
Month to date cooling degree days 0 0  
Year to date cooling degree days 0 0  
Moisture  
Dew Point 16 °F    
Average Humidity 70    
Maximum Humidity 85    
Minimum Humidity 49    
Precipitation  
Precipitation 0.00 in 0.01 in 0.40 in (1918)
Month to date precipitation 0.08 0.09  
Year to date precipitation 1.35 1.09  
Snow  
Snow 0.00 in 0.20 in 4.00 in (1918)
Month to date snowfall 1.1 1.6  
Since 1 July snowfall 51.6 57.9  
Snow Depth 21.00 in    
Sea Level Pressure  
Sea Level Pressure 29.86 in    
Wind  
Wind Speed 2 mph (WNW)    
Max Wind Speed 7 mph    
Max Gust Speed -    
Visibility 10 miles    
Events Snow    
T = Trace of Precipitation, MM = Missing Value Source: NWS Daily Summary

Daily Weather History Graph

Daily Weather History Graph

Search for Another Location

Airport:

Trip Planner

Search our weather history database for the weather conditions in past years. The results will help you decide how hot, cold, wet, or windy it might be!

Date:

Astronomy

Mar. 09, 2013 Rise Set
Actual Time 7:30 AM AKST 6:34 PM AKST
Civil Twilight 6:41 AM AKST 7:23 PM AKST
Nautical Twilight 5:44 AM AKST 8:21 PM AKST
Astronomical Twilight 4:43 AM AKST 9:23 PM AKST
Moon 6:34 AM AKST (3/9) 4:21 PM AKST (3/9)
Length of Visible Light 12h 41m
Length of Day
11h 04m
Waning Crescent, 5% of the Moon is Illuminated
Mar 9
Waning Crescent
Mar 11
New
Mar 19
First Quarter
Mar 27
Full
Apr 2
Last Quarter

Hourly Weather History & Observations

Time (AKST) Temp. Windchill Dew Point Humidity Pressure Visibility Wind Dir Wind Speed Gust Speed Precip Events Conditions
12:53 AM 19.0 °F - 15.1 °F 85% 29.66 in 10.0 mi Calm Calm - N/A   Partly Cloudy
1:53 AM 21.0 °F 16.2 °F 16.0 °F 81% 29.68 in 10.0 mi ENE 3.5 mph - N/A   Partly Cloudy
3:53 AM 19.9 °F - 12.9 °F 74% 29.75 in 10.0 mi Calm Calm - N/A   Partly Cloudy
4:53 AM 16.0 °F - 10.0 °F 77% 29.77 in 10.0 mi Calm Calm - N/A   Partly Cloudy
5:53 AM 19.0 °F 12.3 °F 10.0 °F 68% 29.78 in 10.0 mi SSW 4.6 mph - N/A   Partly Cloudy
6:53 AM 17.1 °F 10.0 °F 10.0 °F 74% 29.81 in 10.0 mi ENE 4.6 mph - N/A   Mostly Cloudy
7:53 AM 17.1 °F 10.0 °F 10.9 °F 77% 29.82 in 10.0 mi NNE 4.6 mph - N/A   Overcast
8:01 AM 18.0 °F 12.7 °F 10.9 °F 74% 29.80 in 10.0 mi NNE 3.5 mph - N/A   Overcast
8:53 AM 17.1 °F 8.7 °F 10.0 °F 74% 29.84 in 10.0 mi North 5.8 mph - N/A   Mostly Cloudy
9:53 AM 19.0 °F 12.3 °F 10.9 °F 71% 29.85 in 10.0 mi North 4.6 mph - N/A   Mostly Cloudy
10:53 AM 23.0 °F 17.0 °F 14.0 °F 68% 29.86 in 10.0 mi North 4.6 mph - N/A   Mostly Cloudy
11:53 AM 27.0 °F 23.0 °F 16.0 °F 63% 29.86 in 10.0 mi North 3.5 mph - N/A   Mostly Cloudy
12:53 PM 30.9 °F - 19.0 °F 61% 29.87 in 10.0 mi Calm Calm - N/A   Mostly Cloudy
1:53 PM 30.9 °F - 19.9 °F 64% 29.88 in 10.0 mi Calm Calm - N/A   Mostly Cloudy
2:53 PM 32.0 °F - 19.9 °F 61% 29.88 in 10.0 mi Calm Calm - N/A   Mostly Cloudy
3:53 PM 33.1 °F - 19.9 °F 59% 29.88 in 10.0 mi Calm Calm - N/A   Mostly Cloudy
4:53 PM 30.0 °F - 19.0 °F 64% 29.90 in 10.0 mi Calm Calm - N/A   Mostly Cloudy
5:53 PM 28.9 °F 25.2 °F 19.0 °F 67% 29.91 in 10.0 mi SSW 3.5 mph - N/A   Mostly Cloudy
6:53 PM 28.9 °F 22.8 °F 19.9 °F 69% 29.93 in 10.0 mi SSW 5.8 mph - N/A   Mostly Cloudy
7:53 PM 27.0 °F 23.0 °F 19.0 °F 72% 29.95 in 10.0 mi SW 3.5 mph - N/A   Mostly Cloudy
8:53 PM 28.0 °F 24.2 °F 19.0 °F 69% 29.98 in 10.0 mi WSW 3.5 mph - N/A   Mostly Cloudy
9:53 PM 32.0 °F 25.6 °F 24.1 °F 73% 29.98 in 9.0 mi SW 6.9 mph - N/A Snow Light Snow
10:53 PM 27.0 °F 19.5 °F 23.0 °F 85% 30.01 in 6.0 mi South 6.9 mph - N/A Snow Light Snow
11:53 PM 28.9 °F 21.9 °F 25.0 °F 85% 30.03 in 6.0 mi WSW 6.9 mph - N/A Snow Light Snow